星链-4603 (STARLINK-4603 )

导读

STARLINK-4603是美国SpaceX星链星座的卫星,于2022年8月28日发射升空,归属于美国。它是星链全球卫星互联网组网的组成单元,依托低轨星座布局,为全球用户提供宽带互联网接入服务,在通信覆盖、尤其是偏远地区网络连通等方面发挥作用,推进星链系统的服务能力建设。

基本信息
目录编号:
53625
目录名称:
STARLINK-4603
国际标识:
2022-104AP
轨道中心:
EARTH
卫星名称:
星链-4603
卫星全名:
星链-4603 (STARLINK-4603 )
卫星状态:
已陨落 最后检测时间 2024-12-31
发射日期:
2022-08-28 UTC
国别 :
美国 (US)
星等 :
--
该卫星已列入 空间交会检测服务 Space Conjunction Data Service (SCDS) ,当前飞行风险评估等级: 无高风险
轨道信息
数据来源 国际轨道数据
星历时间: 2024-12-31T17:12:29+0800
轨道信息已过期620天
半长轴: 6528.36km
偏心率: 0.0002962
轨道倾角: 53.199°
近地点辐角 148.817°
升交点赤经 358.081°
平近点角 319.110°
近地点: 148.291km
远地点: 152.159km
周期: 87.491分钟
每日圈数: 16.458743
详细信息
固有亮度:
5
最大亮度:
2.5
卫星平台:
Starlink v1.5
覆盖范围:
全球
运营商:
太空探索技术公司
运营商所在国:
美国
制造商(研发单位):
太空探索技术公司
制造商所在国:
美国
使用方式:
暂无
卫星简介
星链(Starlink)计划是由太空探索技术公司(SpaceX)提出的一个巨型低轨卫星互联网星座项目,计划在2019年至2024年间在太空搭建由约1.2万颗卫星组成的“星链”网络,其中1584颗将部署在地球上空550千米处的近地轨道,并从2020年开始工作。该卫星仍在工作。
与全量物体交会距离演化趋势
与全量物体交会风险概率演化趋势